Powrót do katalogu

KUIPER-00262

AktywnyŁącznośćLEO
NORAD 67788·PAYLOAD·🇺🇸 United States

Wystrzelony Feb 12, 2026 z Guiana Space Centre

Loading…

Następne Przeloty (najbliższe 24 godziny)

TLE

ŚwieżeSource: CelesTrak SupGP

Epoka: Sep 14, 2026, 16:56 UTC

1 67788C 26030AA  26257.70569444 -.00001097  00000+0 -14360-3 0  2570
2 67788  51.8995  79.8036 0001147 109.7414 171.3844 14.79933175    15

Śledź KUIPER-00262 w czasie rzeczywistym z AllMySat

Download on the App Store